Location: Poughquag
(41.6090°N, 73.6820°W)
Time: 10:43:35
(UTC-04:00)

ISS - Visible Passes

Search period start: 21 July 2017 00:00
Search period end: 31 July 2017 00:00
Orbit: 400 x 408 km, 51.6° (Epoch: 21 July)

Date Brightness Start Highest point End Pass type
(mag) Time Alt. Az. Time Alt. Az. Time Alt. Az.
21 Jul -1.0 00:39:45 17° NNE 00:39:45 17° NNE 00:41:03 10° NE visible
21 Jul -0.6 02:13:55 10° NNW 02:15:46 14° N 02:17:37 10° NE visible
21 Jul -1.3 03:50:21 10° NW 03:53:06 24° NNE 03:55:51 10° ENE visible
21 Jul -0.9 23:48:25 13° NE 23:48:25 13° NE 23:48:54 10° NE visible
22 Jul -0.6 01:21:15 10° NW 01:23:10 15° N 01:25:06 10° NNE visible
22 Jul -0.9 02:58:12 10° NNW 03:00:36 19° NNE 03:02:59 10° ENE visible
22 Jul -3.6 04:34:15 10° NW 04:37:30 72° NNE 04:40:46 10° ESE visible
22 Jul -2.4 21:14:56 10° S 21:17:18 19° SE 21:19:42 10° E visible
22 Jul -3.0 22:50:22 10° WSW 22:53:33 50° NNW 22:56:44 10° NE visible
23 Jul -0.8 00:28:25 10° NW 00:30:35 16° NNW 00:32:46 10° NNE visible
23 Jul -0.7 02:05:58 10° NNW 02:08:02 16° N 02:10:06 10° NE visible
23 Jul -2.5 03:42:02 10° NW 03:45:09 41° NNE 03:48:16 10° E visible
23 Jul -4.0 21:57:58 10° SW 22:01:12 89° SSE 22:04:28 10° NE visible
23 Jul -1.1 23:35:31 10° WNW 23:38:02 20° NNW 23:40:33 10° NNE visible
24 Jul -0.5 01:13:34 10° NNW 01:15:25 14° N 01:17:17 10° NE visible
24 Jul -1.6 02:49:51 10° NW 02:52:43 27° NNE 02:55:34 10° E visible
24 Jul -3.6 04:26:09 10° WNW 04:29:18 46° SW 04:32:26 10° SE visible
24 Jul -3.6 21:05:49 10° SSW 21:08:56 45° SE 21:12:04 10° ENE visible
24 Jul -1.6 22:42:40 10° W 22:45:31 27° NNW 22:48:22 10° NE visible
25 Jul -0.6 00:20:56 10° NW 00:22:48 14° N 00:24:40 10° NNE visible
25 Jul -1.1 01:57:41 10° NNW 02:00:11 20° NNE 02:02:42 10° ENE visible
25 Jul -4.0 03:33:45 10° NW 03:37:01 89° NNE 03:40:17 10° SE visible
25 Jul -1.7 05:12:35 10° WSW 05:13:00 10° SW 05:13:26 10° SW visible
25 Jul -2.5 21:49:57 10° WSW 21:53:03 41° NNW 21:56:10 10° NE visible
25 Jul -0.7 23:28:06 10° NW 23:30:09 16° N 23:32:14 10° NNE visible
26 Jul -0.7 01:05:26 10° NNW 01:06:55 15° N 01:06:55 15° N visible
26 Jul -3.6 20:57:24 10° WSW 21:00:39 74° NW 21:03:54 10° NE visible
26 Jul -0.9 22:35:09 10° WNW 22:37:33 19° NNW 22:39:57 10° NNE visible
27 Jul -0.7 00:13:04 10° NNW 00:14:58 14° N 00:15:40 14° NNE visible
27 Jul -1.4 21:42:14 10° WNW 21:44:58 24° NNW 21:47:43 10° NE visible
27 Jul -0.7 23:20:28 10° NW 23:22:18 14° N 23:24:08 10° NNE visible
28 Jul -0.5 00:57:01 10° NW 00:57:19 11° NNW 00:57:19 11° NNW visible
28 Jul -2.1 20:49:25 10° W 20:52:27 35° NNW 20:55:30 10° NE visible
28 Jul -0.8 22:27:38 10° NW 22:29:37 15° N 22:31:37 10° NNE visible
29 Jul -0.8 00:04:46 10° NNW 00:06:26 17° N 00:06:26 17° N visible
29 Jul -0.9 21:34:41 10° WNW 21:36:58 17° NNW 21:39:14 10° NNE visible
29 Jul -1.0 23:12:25 10° NNW 23:14:23 15° N 23:15:37 13° NNE visible
30 Jul -0.9 22:19:51 10° NNW 22:21:41 14° N 22:23:31 10° NE visible
